Retour au catalogue

H-2A R/B

ActifHEO
NORAD 42966·ROCKET BODY·🇯🇵 Japan

Lancé Oct 9, 2017 depuis Tanegashima Space Center

Loading…

Prochains Passages (prochaines 24 heures)

TLE

FraisSource: Space-Track

Époque: Sep 14, 2026, 03:38 UTC

1 42966U 17062B   26257.15180112  .00003930  00000-0  11301-2 0  9997
2 42966  31.4602 268.5528 7142213 219.0357  57.5383  2.45409051 77025

Suivez H-2A R/B en temps réel avec AllMySat

Download on the App Store